Powrót do katalogu

STARLINK-36191

AktywnyŁącznośćVLEO
NORAD 67023·PAYLOAD·🇺🇸 United States

Wystrzelony Dec 10, 2025 z Vandenberg Space Force Base

Loading…

Następne Przeloty (najbliższe 24 godziny)

TLE

ŚwieżeSource: CelesTrak SupGP

Epoka: Sep 14, 2026, 21:09 UTC

1 67023C 25293W   26257.88173611 -.00049780  00000+0 -41719-2 0  2576
2 67023  70.0021 337.5858 0003312 272.4993  72.4462 14.98353200    15

Śledź STARLINK-36191 w czasie rzeczywistym z AllMySat

Download on the App Store